Wetbulb
52.95 53.09 53.39 53.71 53.83 53.85 53.90 54.24 54.53 54.37 54.08 53.63 53.40 53.55 53.88 54.19 54.18 54.36 54.58 54.80 54.99 55.14 55.16 55.17 55.11 54.99 54.85 54.94 55.12 55.28 55.61 56.10 56.33 56.52 56.68 56.81 56.85 56.88 56.96 57.05 57.47 57.82 58.42 58.84 59.29 59.79 60.30 60.58 60.91 61.14 60.96 59.87 59.25 58.84 58.85 59.53 59.42 59.10 58.65 58.42 58.20 57.97 57.75 57.61 58.20 58.70 58.74 58.32 58.81
52.58 52.68 52.88 53.35 53.30 53.13 53.10 53.48 53.78 53.81 53.73 53.62 53.50 53.50 53.55 53.80 53.87 54.03 54.10 54.27 54.80 54.99 54.92 54.88 54.70 54.63 54.62 54.85 55.32 55.54 55.84 56.10 55.94 55.83 55.86 56.02 56.04 56.03 56.08 56.34 56.87 57.39 57.86 58.32 58.82 59.38 59.83 60.14 60.65 60.65 60.30 59.45 58.45 57.59 57.18 57.63 58.00 58.39 58.74 59.10 58.79 58.70 58.61 58.47 59.51 59.90 59.99 59.67 59.27
52.06 52.04 52.02 51.96 51.91 52.09 52.41 52.55 52.63 52.68 52.67 52.99 53.31 53.26 53.23 53.44 53.65 53.89 53.96 54.12 54.37 54.49 54.51 54.38 54.17 54.10 54.33 54.63 55.15 55.55 55.64 55.50 55.04 54.80 54.75 54.91 54.99 55.13 55.37 55.75 56.31 56.76 57.17 57.55 57.82 58.25 58.39 58.48 58.44 58.31 58.22 58.22 57.91 57.50 57.36 57.85 58.18 58.39 58.39 57.85 57.59 57.63 57.85 57.99 59.16 59.56 59.42 58.88 57.84
51.51 51.45 51.36 51.47 51.52 51.46 51.46 51.79 51.65 51.79 51.97 52.30 52.25 52.31 52.61 53.04 53.31 53.51 53.51 53.47 53.64 53.76 53.79 53.67 53.38 53.44 53.73 54.11 54.67 55.07 55.16 54.96 53.67 53.13 53.10 53.49 53.90 54.37 54.84 55.29 55.68 55.96 56.19 56.46 56.65 56.69 56.79 56.84 56.63 56.41 56.18 56.13 55.95 55.68 55.55 55.73 56.03 55.76 55.23 54.64 54.87 54.91 54.87 54.69 54.78 55.18 55.63 55.86 55.04
50.67 50.70 50.82 50.91 51.08 50.98 50.79 50.81 50.76 50.85 50.91 51.12 51.38 51.69 52.00 52.35 52.52 52.67 52.88 53.02 53.05 53.06 52.93 52.72 52.42 52.30 52.71 53.72 54.26 54.49 54.50 54.06 52.89 52.21 52.14 52.49 53.08 53.63 54.36 54.87 54.93 55.13 55.24 55.38 55.61 55.66 55.66 55.58 55.31 54.95 54.68 54.69 54.69 54.73 54.73 54.68 54.32 54.00 53.59 53.32 53.14 52.91 52.69 52.37 52.42 52.74 52.91 52.78 51.92
50.01 50.08 50.09 50.17 50.55 50.53 50.36 50.21 50.21 50.24 50.24 50.49 50.69 50.75 51.06 51.78 52.03 52.16 52.28 52.38 52.22 52.00 51.95 52.05 51.87 51.55 51.76 52.80 53.37 53.38 52.72 51.64 51.09 51.33 51.74 51.66 52.54 53.30 53.82 54.17 54.12 54.07 54.12 54.42 54.65 54.74 54.79 54.63 54.13 53.82 53.68 53.64 53.78 53.91 54.00 53.77 53.18 52.55 52.01 51.51 51.47 51.51 51.42 51.11 51.15 51.24 51.10 50.61 49.88
49.76 49.70 49.63 49.68 49.87 49.91 49.87 49.96 49.88 49.81 49.91 49.88 50.04 50.19 50.46 50.87 51.11 51.26 51.27 51.50 51.27 51.08 51.15 51.50 51.48 51.26 51.22 51.65 52.26 52.31 51.79 50.43 49.88 50.05 50.60 51.03 51.98 52.56 52.93 53.17 53.10 52.94 52.97 53.22 53.65 53.79 53.81 53.72 53.23 52.96 52.82 52.87 52.82 53.05 53.09 52.87 52.28 51.51 50.79 50.25 50.38 50.52 50.56 50.38 50.38 50.33 50.02 49.34 48.75
49.32 49.26 49.15 49.20 49.30 49.47 49.60 49.82 49.67 49.65 49.62 49.58 49.52 49.71 50.07 50.27 50.41 50.68 50.87 50.97 50.64 50.62 50.85 51.33 51.35 51.30 51.30 51.47 51.51 51.48 51.18 50.57 50.42 50.04 49.88 50.92 51.24 51.70 52.14 52.29 52.24 52.28 52.28 52.40 52.68 52.75 52.63 52.54 52.19 51.92 51.69 51.69 51.69 51.96 52.14 51.95 51.18 50.42 49.79 49.21 49.34 49.66 49.93 50.06 50.02 49.70 49.29 48.66 47.98
48.59 48.69 48.82 48.92 48.94 49.05 49.20 49.36 49.31 49.30 49.23 49.12 49.21 49.39 49.63 49.68 49.86 50.04 50.45 51.02 50.69 50.61 50.67 50.86 50.78 50.90 50.90 50.61 50.42 50.35 50.29 49.99 50.03 49.73 49.72 50.24 50.74 50.98 50.88 50.45 51.21 51.73 52.09 51.94 52.05 51.91 51.80 51.50 51.14 50.88 50.65 50.56 50.74 50.97 51.10 50.90 50.00 49.29 48.71 48.30 48.30 48.44 48.71 49.16 49.11 48.98 48.57 47.94 47.13
48.06 48.24 48.47 48.58 48.81 48.86 48.87 48.86 48.93 49.00 48.98 48.86 48.95 49.14 49.32 49.57 49.83 50.05 50.27 50.44 50.45 50.39 50.13 49.87 50.07 50.12 49.90 49.68 49.75 49.75 49.62 49.29 49.50 49.57 49.49 49.22 49.43 49.36 49.17 48.94 49.46 50.33 51.09 51.34 51.26 51.03 50.78 50.62 50.22 50.00 49.82 49.96 50.01 49.91 49.77 49.64 48.88 48.07 47.71 47.62 47.31 47.13 47.13 47.49 47.67 47.62 47.40 47.04 46.32
47.76 47.73 47.79 47.87 48.27 48.36 48.33 48.37 48.47 48.61 48.68 48.43 48.34 48.40 48.62 49.21 49.72 49.81 49.80 49.82 49.69 49.44 49.01 48.41 48.91 48.86 48.77 48.84 49.32 49.47 49.23 48.96 49.17 49.06 48.69 48.49 49.00 48.93 48.64 48.36 48.36 48.97 49.95 50.93 50.64 50.14 49.67 49.37 48.97 48.93 48.97 49.17 49.17 49.03 48.77 48.51 47.84 47.22 46.86 46.81 46.54 46.23 46.00 46.09 46.31 46.27 46.22 46.00 45.59
47.15 47.00 47.02 47.08 47.30 47.44 47.45 47.52 47.65 47.88 47.98 47.95 47.68 47.43 47.35 47.52 48.14 48.56 48.93 49.34 49.20 48.47 47.86 47.93 48.31 48.25 48.11 48.01 48.14 48.30 48.37 48.39 48.61 48.67 48.58 48.22 47.89 47.77 47.73 47.78 47.91 48.59 49.48 50.33 49.14 48.54 48.23 48.01 48.04 48.12 48.21 48.17 48.25 48.16 47.86 47.51 47.03 46.41 45.97 45.84 45.75 45.56 45.38 45.42 45.56 45.60 45.60 45.47 45.15
46.46 46.31 46.24 46.33 46.46 46.51 46.56 46.62 46.79 46.92 46.98 47.03 46.63 46.37 46.19 46.18 46.63 47.21 47.91 48.52 48.60 48.25 47.88 48.38 48.83 48.60 48.30 48.08 48.36 48.43 48.47 48.37 48.74 48.77 48.43 47.78 47.33 47.25 47.21 47.34 47.97 48.47 48.60 48.24 47.65 47.39 47.17 46.86 47.43 47.68 47.72 47.50 47.59 47.45 47.23 46.76 46.19 45.71 45.32 45.01 44.87 44.82 44.77 44.86 45.03 45.12 45.07 44.84 44.57
45.76 45.60 45.57 45.61 45.74 45.66 45.53 45.67 46.01 46.15 46.28 46.10 45.79 45.61 45.61 45.78 46.19 46.81 47.43 48.17 48.45 48.48 48.38 48.59 48.95 48.89 48.66 48.44 48.39 48.47 48.54 48.45 48.22 47.95 47.59 47.18 46.93 46.72 46.72 46.81 47.50 48.01 47.87 46.72 46.63 46.59 46.41 46.23 46.77 47.02 46.98 46.72 46.63 46.54 46.36 45.97 45.58 45.27 44.97 44.66 44.43 44.34 44.33 44.41 44.54 44.49 44.39 44.16 43.93
45.26 45.14 45.14 45.06 45.10 44.93 44.89 45.02 45.36 45.53 45.62 45.52 45.29 45.20 45.29 45.52 46.23 46.94 47.68 48.50 48.81 48.68 48.38 48.42 48.62 48.73 48.67 48.35 48.18 48.33 48.52 48.54 48.07 47.47 46.86 46.36 45.97 45.80 45.75 45.93 46.63 47.33 47.36 46.37 45.92 46.01 46.37 46.72 46.81 46.63 46.28 46.06 46.06 45.88 45.57 45.31 45.00 44.87 44.79 44.52 44.29 44.19 44.13 44.03 44.03 43.94 43.75 43.48 43.24
44.88 44.93 44.89 44.76 44.67 44.50 44.41 44.58 44.79 45.05 45.17 45.29 45.16 44.93 44.93 45.07 46.41 47.41 48.13 48.59 48.75 48.62 48.50 48.68 48.47 48.26 48.16 48.23 48.21 48.26 48.24 48.06 47.61 46.69 45.75 44.84 44.57 44.38 44.42 44.63 45.22 45.97 46.49 46.23 45.93 45.97 46.55 47.38 47.16 46.90 46.68 46.36 46.23 46.05 45.79 45.52 45.16 44.98 44.80 44.62 44.43 44.29 44.20 44.20 43.97 43.65 43.52 43.29 43.02
44.46 44.54 44.59 44.46 44.33 44.20 44.06 44.14 44.30 44.65 44.95 45.44 45.53 45.48 45.39 45.56 46.72 47.71 48.46 48.62 48.64 48.67 48.57 48.62 48.21 47.69 47.31 47.40 47.38 47.27 47.28 47.25 46.65 45.48 44.24 43.30 43.07 42.96 42.95 43.11 43.65 44.34 45.14 45.80 46.06 46.37 46.63 46.99 46.95 46.77 46.45 46.23 46.05 45.87 45.73 45.55 45.32 45.14 44.82 44.60 44.42 44.33 44.24 44.28 43.92 43.60 43.29 43.16 42.84
43.82 43.86 43.90 43.82 43.69 43.55 43.54 43.53 43.78 44.26 44.92 45.97 46.15 46.28 46.32 46.37 47.03 47.66 48.29 48.66 48.30 48.23 48.21 48.27 47.77 47.20 46.75 46.37 46.12 45.90 45.81 45.95 45.13 43.94 42.77 42.09 41.91 41.80 41.74 41.81 42.17 42.76 43.57 44.73 45.57 45.88 45.92 45.96 46.01 45.96 45.69 45.51 45.28 45.06 44.88 44.70 44.47 44.28 44.10 43.92 43.87 43.74 43.60 43.60 43.38 43.11 42.79 42.48 42.30
43.35 43.31 43.22 43.09 42.95 42.82 42.98 43.32 43.39 43.64 44.35 45.49 45.58 45.80 46.10 46.28 46.89 47.39 47.77 47.98 47.50 47.03 46.89 47.08 46.94 46.61 46.19 45.89 45.23 44.93 44.84 44.75 43.90 42.76 41.88 41.46 41.32 41.12 41.02 41.10 41.58 42.16 43.05 44.31 44.97 45.15 45.15 45.20 45.24 45.20 44.97 44.61 44.25 43.94 43.76 43.48 43.34 43.20 43.11 42.97 42.84 42.75 42.70 42.57 42.43 42.16 41.89 41.62 41.62
43.27 43.14 42.92 42.66 42.52 42.46 42.49 42.83 42.86 43.25 43.69 44.26 44.25 44.56 45.09 45.75 46.36 46.92 47.13 47.04 46.61 46.05 45.70 45.95 45.99 45.99 45.77 45.31 44.59 44.19 44.19 44.46 43.26 42.19 41.30 40.92 40.86 40.92 41.19 41.33 41.74 42.35 43.23 44.31 44.65 44.74 44.69 44.65 44.66 44.48 44.16 43.72 43.26 42.85 42.53 42.39 42.25 42.21 42.12 42.12 42.07 41.94 41.80 41.71 41.53 41.40 41.31 41.26 41.31
43.35 43.22 42.88 42.61 42.38 42.24 42.26 42.34 42.61 43.23 43.85 44.32 44.00 44.12 44.56 45.45 46.41 46.84 46.92 46.92 46.44 45.88 45.49 45.70 45.70 45.53 45.27 44.72 44.28 44.02 43.98 44.16 42.87 41.84 41.15 41.04 41.30 41.54 41.91 42.17 42.40 42.56 42.94 43.53 44.26 44.52 44.56 44.25 44.03 43.77 43.37 42.96 42.37 41.91 41.59 41.45 41.35 41.31 41.35 41.45 41.49 41.41 41.32 41.09 40.96 41.00 41.10 41.14 41.09
43.30 43.09 42.79 42.52 42.30 42.20 42.18 42.23 42.67 43.29 43.90 44.28 44.10 44.35 44.92 45.88 46.45 46.57 46.53 46.39 46.01 45.62 45.32 45.36 45.23 44.84 44.32 43.79 43.63 43.72 43.64 43.25 42.14 41.40 41.12 41.35 41.81 42.02 42.11 42.32 42.72 42.70 42.69 42.91 43.32 43.64 43.78 43.69 43.43 43.07 42.71 42.29 41.75 41.39 41.12 40.93 40.74 40.73 40.78 40.96 41.14 41.23 41.18 41.05 40.82 40.82 40.96 41.18 41.13
43.07 42.69 42.39 42.17 42.12 42.33 42.45 42.28 42.59 43.29 43.86 44.07 44.11 44.71 45.40 45.79 45.97 45.92 45.71 45.32 45.02 44.89 44.80 44.88 44.58 44.00 43.39 43.04 42.96 42.94 42.81 42.34 40.90 40.68 41.02 41.03 40.87 40.86 41.12 41.56 42.31 42.30 42.12 42.12 42.67 42.90 42.88 42.67 42.67 42.49 42.16 41.79 41.33 41.10 40.89 40.68 40.61 40.51 40.51 40.67 40.81 40.85 40.76 40.49 39.99 39.99 40.22 40.59 40.70
42.63 42.16 41.81 41.54 41.63 41.75 41.79 41.93 42.20 43.04 43.65 43.81 43.94 44.37 44.80 44.89 44.93 44.63 44.19 43.80 43.71 43.71 43.84 43.88 43.61 43.16 42.71 42.45 42.52 42.35 42.12 41.91 40.71 40.54 40.94 40.98 40.39 40.17 40.35 40.75 41.07 41.44 41.86 42.21 42.87 43.01 42.79 42.39 42.20 42.01 41.83 41.47 41.16 41.03 40.86 40.77 40.58 40.52 40.42 40.33 40.19 40.08 39.86 39.54 39.50 39.47 39.53 39.76 39.69
42.13 41.79 41.44 41.09 41.04 41.12 41.21 41.39 41.84 42.38 42.91 43.12 43.34 43.59 43.59 43.37 43.10 42.57 42.16 42.17 42.35 42.57 42.69 42.59 42.29 42.08 41.91 41.91 42.09 42.11 41.99 41.64 41.15 40.85 40.62 40.80 40.66 40.34 40.16 40.35 40.97 41.19 41.49 42.02 42.95 43.58 43.80 43.39 42.79 42.20 41.75 41.36 41.11 40.98 40.89 40.79 40.61 40.47 40.25 40.02 39.82 39.61 39.46 39.42 39.59 39.51 39.25 38.75 38.49
41.55 41.20 40.90 40.68 40.63 40.67 40.76 41.07 41.76 42.16 42.42 42.50 42.85 43.02 42.88 42.20 41.76 41.62 41.62 41.53 41.66 41.91 41.99 41.78 41.40 41.27 41.17 41.15 41.47 41.66 41.63 41.22 41.19 40.99 40.66 40.53 40.53 40.43 40.45 40.44 40.51 40.55 40.85 41.76 42.70 43.63 44.25 44.42 43.93 43.03 42.10 41.31 41.05 40.82 40.64 40.50 40.43 40.26 40.07 39.84 39.74 39.59 39.39 39.10 39.02 38.81 38.59 38.25 37.99
40.95 40.60 40.43 40.35 40.31 40.35 40.58 41.13 41.68 41.90 42.06 42.33 42.62 42.56 42.00 41.21 41.42 41.50 41.52 41.41 41.57 41.75 41.79 41.65 41.32 41.24 41.22 41.16 41.24 41.14 40.88 40.59 40.92 41.00 40.86 40.55 40.27 40.04 39.97 40.04 40.19 40.19 40.65 41.77 42.66 43.59 44.34 44.78 44.43 43.68 42.58 41.11 40.71 40.45 40.19 39.92 39.89 39.76 39.67 39.54 39.36 39.05 38.66 37.99 37.67 37.64 37.64 37.62 37.32
40.43 40.22 40.05 40.06 39.93 40.07 40.54 41.23 41.62 41.82 41.89 42.06 41.77 41.63 41.40 40.71 41.17 41.38 41.48 41.69 41.72 41.76 41.66 41.57 41.59 41.34 41.03 40.78 40.62 40.39 40.19 40.04 40.31 40.02 39.64 39.32 39.33 39.36 39.57 40.11 40.03 40.40 41.12 42.14 42.76 43.63 44.29 44.69 44.35 43.74 42.81 41.24 39.75 39.19 39.17 39.19 39.25 39.17 38.95 38.80 38.56 38.01 37.37 36.86 36.60 36.39 36.30 36.30 35.46
40.09 39.88 39.61 39.34 39.42 39.93 40.71 41.46 41.53 41.61 41.56 41.35 40.69 40.75 41.13 41.46 41.27 41.25 41.27 41.17 41.12 41.11 41.11 41.20 41.30 40.84 40.34 40.16 40.21 40.21 40.14 39.91 39.86 39.75 39.63 39.53 39.75 39.89 40.00 40.28 40.08 40.52 41.33 42.34 42.99 43.64 44.12 44.21 43.91 43.52 42.86 41.79 40.06 39.28 39.03 38.97 38.78 38.50 38.08 37.78 37.31 37.01 36.66 36.12 35.60 35.20 34.95 35.00 34.16
39.61 39.34 38.98 38.98 39.38 40.14 40.86 41.16 41.10 41.05 40.97 40.67 40.96 41.28 41.49 41.52 41.59 41.31 40.75 39.88 40.16 40.61 41.02 41.29 40.97 40.61 40.29 40.43 40.57 40.31 39.86 39.42 39.96 40.24 40.14 39.89 39.95 40.04 40.16 40.28 40.10 40.59 41.53 42.60 43.12 43.68 43.85 43.77 43.46 43.08 42.56 41.82 40.26 38.96 38.24 38.20 37.73 37.42 37.18 37.00 36.73 36.45 36.11 35.57 35.03 34.62 34.33 34.17 33.82
39.23 39.00 38.90 39.08 39.49 40.16 40.78 41.05 41.25 41.16 40.98 41.16 41.15 41.45 41.54 41.35 41.39 41.03 40.34 39.71 40.21 40.98 41.57 41.48 40.80 40.62 40.71 40.84 40.66 40.34 40.03 40.12 40.49 40.60 40.44 40.24 40.35 40.29 40.13 39.99 40.13 40.84 41.91 42.98 43.37 43.55 43.55 43.46 43.11 42.64 42.13 41.58 40.16 38.51 37.20 37.06 36.78 36.67 36.62 36.39 35.86 35.46 35.24 35.16 35.09 34.75 34.32 34.08 33.76
39.39 39.21 39.07 39.20 39.42 40.10 41.00 41.92 42.03 41.75 41.34 41.14 41.26 40.99 40.80 40.94 40.58 40.35 40.17 40.22 40.58 40.90 40.94 40.62 40.39 40.39 40.43 40.61 40.25 40.16 40.16 40.34 40.53 40.62 40.72 40.54 40.31 40.12 40.03 40.08 40.31 41.06 42.08 43.06 43.24 43.24 43.15 42.98 42.67 42.25 41.69 41.13 39.00 36.55 34.77 34.95 35.31 35.28 35.01 34.39 34.03 33.91 33.91 34.08 34.52 34.41 34.19 34.05 33.81
40.52 40.11 39.47 39.38 39.69 40.51 41.50 42.37 42.06 41.69 41.10 40.13 40.26 40.08 39.94 40.17 39.22 39.27 39.81 40.49 40.62 40.25 39.76 39.71 39.94 39.94 39.76 39.75 39.57 39.53 39.80 40.43 40.66 40.85 40.94 40.85 40.49 40.17 40.07 40.17 40.39 41.25 42.32 42.98 42.93 42.80 42.58 42.23 41.63 41.00 40.24 39.14 36.23 33.57 31.99 32.24 32.37 32.49 32.48 32.00 31.77 31.72 31.85 32.14 32.35 32.65 32.97 33.30 33.36
41.51 40.70 39.88 39.38 40.06 40.82 41.63 42.04 41.82 41.45 40.50 38.72 38.81 39.21 39.44 38.91 38.77 38.95 39.27 39.72 39.98 39.76 39.53 39.80 39.98 39.76 39.35 39.07 38.67 38.85 39.49 40.54 40.57 40.53 40.43 40.48 40.31 40.08 39.94 39.80 40.16 41.26 42.39 42.63 42.41 42.06 41.67 41.11 40.53 39.87 39.04 38.03 34.74 32.43 31.17 30.98 30.65 30.42 30.12 29.68 29.60 29.45 29.44 29.52 29.76 30.05 30.57 31.39 32.03
41.69 40.88 40.10 39.51 40.37 41.14 41.63 41.49 41.31 40.77 39.81 38.36 38.26 38.85 39.36 39.10 39.05 38.73 38.68 39.32 39.40 39.08 38.93 39.57 39.67 39.44 39.08 38.86 38.77 38.82 39.13 39.54 39.62 39.76 39.94 39.94 39.90 39.72 39.62 39.35 39.94 41.09 42.00 42.01 41.62 41.15 40.73 40.27 39.74 39.14 38.14 36.65 33.52 31.70 30.77 30.30 29.74 29.26 28.92 28.83 28.81 28.79 28.80 28.97 29.20 29.43 29.62 29.81 30.24
41.33 40.61 40.01 39.69 40.55 41.23 41.41 40.95 40.59 40.04 39.37 38.60 38.91 39.37 39.65 39.38 38.60 38.41 38.87 39.47 38.91 38.45 38.40 38.81 38.23 37.33 36.38 35.75 35.93 36.34 36.80 37.24 37.99 38.72 39.30 39.67 39.40 39.04 38.72 38.63 39.18 40.30 41.30 41.23 40.80 40.38 40.01 39.61 39.18 38.50 37.27 35.01 32.43 31.07 30.44 29.96 29.56 29.30 29.22 29.20 29.21 29.00 28.81 28.98 29.26 29.44 29.57 29.59 29.63
40.70 39.98 39.61 39.69 40.51 40.91 40.87 40.41 40.14 39.73 39.15 38.55 39.06 39.29 39.10 38.42 37.60 37.87 38.55 38.97 38.18 37.90 37.90 37.78 36.65 35.48 34.35 33.57 33.43 33.89 34.71 35.38 35.97 36.77 37.86 39.09 38.64 38.00 37.63 37.54 37.78 38.90 40.10 40.50 40.13 39.76 39.44 39.14 38.64 37.77 36.10 33.10 31.01 30.14 30.01 29.90 29.79 29.65 29.42 29.30 29.07 28.66 28.50 28.63 28.87 29.06 29.44 30.14 31.16
40.57 39.89 39.57 39.75 40.33 40.55 40.42 39.96 39.69 39.10 38.51 38.11 38.47 38.65 38.38 37.38 37.10 37.38 37.97 38.52 37.56 37.23 37.00 36.65 35.52 34.26 33.31 32.90 33.12 33.40 33.95 34.85 34.81 34.71 35.15 36.46 36.83 36.70 36.42 36.15 36.24 37.38 38.82 39.85 39.67 39.36 39.04 38.62 38.05 37.00 35.09 31.78 29.83 29.14 29.22 29.18 28.94 28.57 28.20 27.87 27.70 27.59 27.48 27.44 27.73 28.25 29.34 31.03 33.73
40.75 39.89 39.35 39.66 39.97 39.92 39.78 39.42 38.87 38.33 37.89 37.67 37.84 37.79 37.52 36.93 36.88 37.29 37.66 37.58 36.84 36.52 36.34 35.98 34.80 33.58 32.91 33.55 33.63 33.57 33.75 34.62 34.87 34.60 34.40 34.25 35.53 36.27 36.14 34.89 34.84 35.97 37.78 39.37 39.29 39.11 38.73 38.28 37.56 36.67 35.03 31.97 29.10 28.14 28.14 27.80 27.46 27.09 26.80 26.48 26.43 26.51 26.63 26.66 27.20 27.98 29.25 31.16 34.78
40.53 39.63 39.08 39.53 39.84 39.69 39.24 38.83 38.20 37.88 37.57 37.22 36.89 36.38 36.20 36.66 37.16 37.48 37.48 36.85 36.57 36.57 36.43 35.89 34.40 33.50 33.59 34.74 34.26 33.80 33.62 34.17 34.19 34.29 34.43 34.74 35.76 36.83 36.80 34.72 34.02 34.87 36.68 38.64 38.88 38.67 38.22 37.75 37.10 36.32 34.64 31.12 28.17 27.22 27.10 26.90 26.59 26.23 25.98 25.68 25.76 25.93 26.16 26.44 27.09 27.76 28.56 29.62 32.62
40.44 39.72 39.35 39.71 40.08 39.89 39.38 38.60 38.06 37.75 37.39 36.72 35.85 35.62 36.12 37.22 37.67 37.53 37.16 36.88 37.02 37.16 36.85 35.91 34.50 33.77 34.01 35.15 34.54 33.76 33.34 33.63 33.75 33.86 34.25 35.14 35.96 36.73 36.58 34.64 33.43 33.42 34.57 36.73 37.88 38.01 37.62 37.09 36.50 35.87 34.32 30.80 27.35 26.27 26.33 26.22 25.97 25.63 25.40 25.18 25.27 25.49 25.82 26.13 26.55 27.09 27.58 27.88 29.05
MSLP
1017.02 1017.10 1017.18 1017.30 1017.42 1017.54 1017.62 1017.70 1017.78 1017.86 1017.98 1018.06 1018.14 1018.14 1018.22 1018.26 1018.34 1018.34 1018.34 1018.38 1018.46 1018.54 1018.54 1018.66 1018.70 1018.78 1018.82 1018.86 1018.90 1018.98 1018.98 1019.02 1019.10 1019.14 1019.14 1019.14 1019.14 1019.10 1019.02 1019.02 1018.98 1018.94 1018.86 1018.78 1018.70 1018.54 1018.46 1018.38 1018.26 1018.14 1017.98 1017.90 1017.82 1017.74 1017.70 1017.58 1017.50 1017.46 1017.54 1017.58 1017.70 1017.82 1017.90 1018.02 1018.14 1018.26 1018.38 1018.46 1018.54
1017.14 1017.22 1017.30 1017.42 1017.54 1017.62 1017.70 1017.82 1017.90 1017.98 1018.02 1018.10 1018.14 1018.22 1018.26 1018.30 1018.38 1018.42 1018.42 1018.42 1018.46 1018.50 1018.58 1018.70 1018.74 1018.82 1018.82 1018.90 1018.90 1018.98 1019.02 1019.10 1019.14 1019.14 1019.18 1019.18 1019.14 1019.10 1019.06 1019.06 1018.98 1018.94 1018.86 1018.82 1018.70 1018.58 1018.50 1018.38 1018.30 1018.14 1018.02 1017.90 1017.86 1017.86 1017.78 1017.70 1017.62 1017.54 1017.54 1017.62 1017.70 1017.74 1017.86 1017.98 1018.02 1018.14 1018.26 1018.38 1018.46
1017.18 1017.30 1017.42 1017.54 1017.66 1017.70 1017.78 1017.90 1017.98 1018.02 1018.06 1018.14 1018.14 1018.22 1018.30 1018.38 1018.42 1018.46 1018.50 1018.50 1018.50 1018.54 1018.62 1018.70 1018.78 1018.82 1018.86 1018.90 1018.94 1018.98 1019.06 1019.14 1019.18 1019.22 1019.22 1019.22 1019.14 1019.14 1019.10 1019.06 1018.98 1018.94 1018.86 1018.82 1018.74 1018.66 1018.58 1018.46 1018.38 1018.26 1018.18 1018.06 1017.98 1017.94 1017.90 1017.82 1017.70 1017.66 1017.70 1017.74 1017.78 1017.82 1017.86 1017.98 1018.02 1018.10 1018.22 1018.34 1018.46
1017.26 1017.38 1017.50 1017.62 1017.70 1017.78 1017.86 1017.94 1017.98 1018.06 1018.14 1018.18 1018.26 1018.30 1018.38 1018.42 1018.46 1018.50 1018.54 1018.54 1018.54 1018.62 1018.74 1018.82 1018.82 1018.86 1018.90 1018.94 1018.98 1019.06 1019.14 1019.18 1019.22 1019.26 1019.26 1019.26 1019.18 1019.14 1019.06 1019.02 1018.98 1018.94 1018.86 1018.82 1018.78 1018.70 1018.66 1018.58 1018.46 1018.42 1018.34 1018.26 1018.14 1018.10 1018.06 1017.98 1017.86 1017.86 1017.90 1017.94 1017.94 1017.98 1018.06 1018.14 1018.22 1018.26 1018.30 1018.42 1018.54
1017.34 1017.42 1017.54 1017.66 1017.74 1017.82 1017.86 1017.98 1018.06 1018.14 1018.22 1018.26 1018.34 1018.42 1018.42 1018.50 1018.54 1018.58 1018.62 1018.66 1018.70 1018.74 1018.82 1018.90 1018.90 1018.98 1018.98 1019.02 1019.10 1019.14 1019.14 1019.18 1019.26 1019.34 1019.30 1019.26 1019.22 1019.14 1019.06 1018.98 1018.98 1018.94 1018.90 1018.86 1018.82 1018.78 1018.70 1018.70 1018.58 1018.54 1018.50 1018.42 1018.34 1018.26 1018.22 1018.14 1018.06 1018.06 1018.10 1018.14 1018.10 1018.14 1018.18 1018.30 1018.34 1018.38 1018.46 1018.66 1018.82
1017.42 1017.54 1017.62 1017.70 1017.78 1017.86 1017.94 1018.02 1018.14 1018.22 1018.26 1018.34 1018.42 1018.50 1018.54 1018.58 1018.62 1018.70 1018.70 1018.78 1018.78 1018.82 1018.90 1018.94 1018.98 1019.06 1019.14 1019.14 1019.14 1019.18 1019.22 1019.26 1019.30 1019.30 1019.30 1019.26 1019.22 1019.14 1019.06 1018.98 1018.98 1018.94 1018.94 1018.90 1018.82 1018.82 1018.78 1018.74 1018.70 1018.66 1018.62 1018.58 1018.54 1018.46 1018.42 1018.30 1018.22 1018.22 1018.26 1018.34 1018.38 1018.38 1018.38 1018.42 1018.46 1018.50 1018.58 1018.78 1018.98
1017.46 1017.54 1017.70 1017.78 1017.86 1017.94 1018.02 1018.10 1018.18 1018.26 1018.34 1018.42 1018.50 1018.54 1018.62 1018.66 1018.70 1018.74 1018.82 1018.86 1018.90 1018.98 1018.98 1019.02 1019.10 1019.14 1019.22 1019.26 1019.18 1019.18 1019.22 1019.26 1019.26 1019.30 1019.26 1019.26 1019.14 1019.10 1019.02 1018.98 1018.94 1018.94 1018.94 1018.94 1018.90 1018.86 1018.82 1018.82 1018.78 1018.74 1018.70 1018.70 1018.66 1018.66 1018.62 1018.54 1018.42 1018.38 1018.42 1018.54 1018.62 1018.66 1018.66 1018.66 1018.70 1018.70 1018.78 1018.98 1019.18
1017.50 1017.58 1017.70 1017.82 1017.90 1017.98 1018.06 1018.14 1018.26 1018.30 1018.42 1018.46 1018.54 1018.58 1018.66 1018.70 1018.74 1018.82 1018.86 1018.94 1018.98 1019.02 1019.06 1019.14 1019.14 1019.22 1019.26 1019.26 1019.22 1019.18 1019.18 1019.26 1019.26 1019.26 1019.26 1019.18 1019.10 1019.06 1018.98 1018.98 1018.98 1018.98 1018.98 1018.98 1018.94 1018.94 1018.90 1018.86 1018.86 1018.86 1018.82 1018.82 1018.78 1018.82 1018.82 1018.74 1018.66 1018.54 1018.58 1018.70 1018.82 1018.82 1018.82 1018.82 1018.86 1018.94 1018.98 1019.14 1019.30
1017.54 1017.66 1017.74 1017.86 1017.94 1018.02 1018.14 1018.18 1018.26 1018.34 1018.42 1018.54 1018.54 1018.62 1018.66 1018.70 1018.78 1018.82 1018.90 1018.98 1019.02 1019.10 1019.14 1019.18 1019.22 1019.26 1019.26 1019.30 1019.26 1019.22 1019.22 1019.22 1019.22 1019.26 1019.22 1019.18 1019.14 1019.06 1019.06 1019.02 1018.98 1018.98 1018.94 1018.94 1018.94 1018.94 1018.98 1018.94 1018.98 1018.98 1018.98 1018.90 1018.86 1018.90 1018.98 1018.98 1018.86 1018.78 1018.78 1018.82 1018.94 1019.02 1019.10 1019.14 1019.14 1019.14 1019.18 1019.30 1019.46
1017.58 1017.70 1017.78 1017.86 1017.98 1018.02 1018.14 1018.18 1018.26 1018.38 1018.46 1018.54 1018.54 1018.62 1018.70 1018.78 1018.82 1018.90 1018.98 1019.02 1019.06 1019.14 1019.14 1019.22 1019.26 1019.26 1019.26 1019.26 1019.26 1019.22 1019.22 1019.22 1019.22 1019.22 1019.22 1019.22 1019.18 1019.14 1019.14 1019.18 1019.14 1019.06 1018.98 1018.94 1018.90 1018.94 1018.98 1018.98 1019.06 1019.06 1019.06 1018.98 1018.98 1018.98 1019.06 1019.10 1019.14 1019.02 1018.98 1018.98 1019.02 1019.14 1019.30 1019.38 1019.38 1019.42 1019.42 1019.54 1019.66
1017.62 1017.70 1017.82 1017.94 1017.98 1018.06 1018.14 1018.26 1018.30 1018.38 1018.42 1018.54 1018.58 1018.70 1018.74 1018.82 1018.86 1018.94 1018.98 1019.06 1019.10 1019.14 1019.22 1019.26 1019.26 1019.26 1019.26 1019.26 1019.22 1019.22 1019.18 1019.18 1019.22 1019.22 1019.22 1019.22 1019.18 1019.18 1019.22 1019.26 1019.22 1019.14 1019.02 1018.94 1018.90 1018.94 1018.98 1019.02 1019.10 1019.10 1019.10 1019.06 1019.02 1019.02 1019.10 1019.22 1019.34 1019.26 1019.22 1019.14 1019.14 1019.26 1019.42 1019.58 1019.66 1019.70 1019.70 1019.78 1019.86
1017.62 1017.74 1017.86 1017.94 1018.02 1018.14 1018.18 1018.26 1018.34 1018.42 1018.46 1018.54 1018.62 1018.74 1018.82 1018.90 1018.98 1019.02 1019.10 1019.10 1019.14 1019.18 1019.26 1019.26 1019.26 1019.26 1019.26 1019.26 1019.26 1019.26 1019.22 1019.18 1019.14 1019.18 1019.22 1019.26 1019.26 1019.26 1019.26 1019.26 1019.30 1019.22 1019.10 1018.98 1018.98 1018.98 1019.02 1019.06 1019.14 1019.14 1019.14 1019.14 1019.14 1019.14 1019.22 1019.34 1019.42 1019.42 1019.42 1019.38 1019.34 1019.42 1019.54 1019.70 1019.78 1019.86 1019.86 1019.98 1020.02
1017.66 1017.82 1017.90 1017.98 1018.06 1018.18 1018.26 1018.34 1018.42 1018.42 1018.50 1018.58 1018.70 1018.78 1018.86 1018.98 1019.06 1019.10 1019.14 1019.14 1019.14 1019.22 1019.26 1019.26 1019.26 1019.26 1019.26 1019.26 1019.26 1019.26 1019.26 1019.22 1019.14 1019.14 1019.18 1019.26 1019.26 1019.30 1019.34 1019.34 1019.34 1019.26 1019.14 1019.10 1019.14 1019.14 1019.14 1019.18 1019.18 1019.18 1019.26 1019.26 1019.26 1019.26 1019.34 1019.42 1019.46 1019.46 1019.46 1019.50 1019.54 1019.62 1019.70 1019.82 1019.86 1019.90 1019.98 1020.10 1020.18
1017.70 1017.86 1017.98 1018.06 1018.14 1018.26 1018.30 1018.38 1018.42 1018.46 1018.54 1018.70 1018.78 1018.82 1018.90 1018.98 1019.06 1019.10 1019.10 1019.10 1019.14 1019.14 1019.22 1019.22 1019.26 1019.26 1019.26 1019.26 1019.26 1019.26 1019.22 1019.14 1019.14 1019.18 1019.22 1019.26 1019.30 1019.34 1019.42 1019.42 1019.38 1019.30 1019.26 1019.26 1019.26 1019.26 1019.26 1019.26 1019.26 1019.26 1019.34 1019.38 1019.38 1019.38 1019.42 1019.46 1019.54 1019.54 1019.54 1019.62 1019.70 1019.82 1019.90 1019.98 1019.98 1020.02 1020.10 1020.22 1020.34
1017.74 1017.86 1017.98 1018.10 1018.18 1018.26 1018.38 1018.42 1018.46 1018.54 1018.62 1018.70 1018.82 1018.86 1018.94 1018.98 1019.06 1019.06 1019.06 1019.06 1019.06 1019.14 1019.18 1019.18 1019.26 1019.26 1019.26 1019.26 1019.26 1019.22 1019.18 1019.14 1019.14 1019.18 1019.26 1019.34 1019.42 1019.42 1019.46 1019.50 1019.46 1019.42 1019.42 1019.42 1019.46 1019.42 1019.38 1019.34 1019.34 1019.42 1019.46 1019.50 1019.54 1019.54 1019.54 1019.54 1019.58 1019.62 1019.70 1019.74 1019.86 1019.94 1019.98 1020.06 1020.14 1020.14 1020.26 1020.34 1020.50
1017.78 1017.86 1017.98 1018.14 1018.22 1018.26 1018.38 1018.42 1018.50 1018.54 1018.66 1018.70 1018.82 1018.90 1018.98 1018.98 1019.02 1018.98 1018.98 1018.98 1019.02 1019.10 1019.14 1019.14 1019.18 1019.22 1019.22 1019.22 1019.18 1019.18 1019.14 1019.14 1019.18 1019.26 1019.34 1019.46 1019.54 1019.54 1019.58 1019.62 1019.58 1019.58 1019.54 1019.58 1019.58 1019.58 1019.50 1019.46 1019.54 1019.54 1019.62 1019.62 1019.66 1019.70 1019.70 1019.74 1019.74 1019.78 1019.86 1019.86 1019.98 1020.02 1020.10 1020.14 1020.22 1020.30 1020.38 1020.46 1020.54
1017.78 1017.86 1017.98 1018.10 1018.18 1018.26 1018.34 1018.42 1018.50 1018.54 1018.62 1018.70 1018.82 1018.90 1018.98 1019.02 1019.02 1018.98 1018.98 1018.98 1018.98 1018.98 1019.02 1019.02 1019.10 1019.14 1019.18 1019.18 1019.14 1019.18 1019.18 1019.18 1019.26 1019.42 1019.54 1019.62 1019.66 1019.70 1019.74 1019.78 1019.78 1019.78 1019.74 1019.74 1019.74 1019.74 1019.70 1019.70 1019.70 1019.74 1019.74 1019.78 1019.78 1019.82 1019.86 1019.90 1019.90 1019.94 1019.98 1020.02 1020.10 1020.14 1020.22 1020.30 1020.34 1020.42 1020.54 1020.62 1020.70
1017.82 1017.90 1017.98 1018.10 1018.18 1018.26 1018.34 1018.42 1018.50 1018.54 1018.62 1018.70 1018.82 1018.90 1018.98 1019.02 1018.98 1018.98 1018.98 1018.98 1018.98 1018.98 1018.98 1018.98 1019.02 1019.10 1019.14 1019.18 1019.22 1019.26 1019.26 1019.30 1019.42 1019.58 1019.70 1019.70 1019.78 1019.86 1019.90 1019.94 1019.98 1019.98 1019.94 1019.90 1019.94 1019.94 1019.90 1019.90 1019.90 1019.90 1019.90 1019.90 1019.90 1019.98 1019.98 1020.02 1020.06 1020.10 1020.14 1020.18 1020.26 1020.30 1020.42 1020.46 1020.54 1020.58 1020.70 1020.74 1020.82
1017.82 1017.90 1017.98 1018.10 1018.18 1018.26 1018.34 1018.42 1018.50 1018.58 1018.66 1018.70 1018.82 1018.94 1018.98 1019.02 1018.98 1018.98 1018.98 1019.02 1019.06 1019.06 1019.06 1019.10 1019.14 1019.14 1019.18 1019.22 1019.30 1019.38 1019.42 1019.46 1019.58 1019.70 1019.78 1019.82 1019.90 1019.98 1019.98 1020.02 1020.10 1020.10 1020.06 1020.06 1020.10 1020.10 1020.06 1020.02 1019.98 1020.02 1020.02 1020.02 1020.06 1020.14 1020.14 1020.18 1020.22 1020.26 1020.30 1020.38 1020.42 1020.50 1020.54 1020.66 1020.70 1020.74 1020.82 1020.90 1020.94
1017.78 1017.90 1017.98 1018.10 1018.18 1018.26 1018.38 1018.42 1018.54 1018.58 1018.70 1018.70 1018.82 1018.94 1018.98 1019.02 1019.02 1019.02 1019.06 1019.10 1019.14 1019.14 1019.18 1019.22 1019.26 1019.26 1019.26 1019.30 1019.42 1019.46 1019.50 1019.54 1019.66 1019.78 1019.86 1019.94 1019.98 1019.98 1020.06 1020.06 1020.14 1020.14 1020.14 1020.14 1020.14 1020.14 1020.14 1020.14 1020.10 1020.10 1020.10 1020.14 1020.18 1020.26 1020.30 1020.30 1020.34 1020.42 1020.46 1020.50 1020.54 1020.62 1020.70 1020.78 1020.82 1020.90 1020.98 1021.02 1021.06
1017.74 1017.86 1017.98 1018.06 1018.14 1018.26 1018.38 1018.46 1018.54 1018.54 1018.62 1018.70 1018.86 1018.94 1018.98 1019.02 1019.02 1019.02 1019.06 1019.14 1019.14 1019.22 1019.26 1019.26 1019.30 1019.34 1019.38 1019.42 1019.50 1019.54 1019.58 1019.58 1019.74 1019.86 1019.94 1019.98 1020.02 1020.06 1020.06 1020.10 1020.18 1020.22 1020.22 1020.22 1020.22 1020.18 1020.18 1020.14 1020.14 1020.14 1020.14 1020.22 1020.26 1020.30 1020.38 1020.42 1020.46 1020.54 1020.54 1020.62 1020.70 1020.74 1020.82 1020.90 1020.98 1021.02 1021.10 1021.14 1021.14
1017.70 1017.78 1017.90 1018.02 1018.14 1018.26 1018.34 1018.42 1018.50 1018.54 1018.62 1018.70 1018.82 1018.90 1018.94 1018.98 1018.98 1019.02 1019.06 1019.14 1019.18 1019.26 1019.30 1019.30 1019.38 1019.42 1019.50 1019.58 1019.62 1019.66 1019.70 1019.78 1019.86 1019.98 1020.02 1020.06 1020.10 1020.14 1020.14 1020.18 1020.22 1020.26 1020.26 1020.26 1020.26 1020.22 1020.18 1020.14 1020.14 1020.18 1020.26 1020.26 1020.34 1020.38 1020.42 1020.46 1020.54 1020.58 1020.66 1020.70 1020.78 1020.82 1020.94 1020.98 1021.06 1021.10 1021.14 1021.18 1021.26
1017.70 1017.74 1017.86 1018.02 1018.14 1018.22 1018.30 1018.42 1018.42 1018.54 1018.62 1018.70 1018.82 1018.86 1018.90 1018.94 1018.98 1019.06 1019.14 1019.18 1019.26 1019.30 1019.34 1019.42 1019.46 1019.54 1019.62 1019.70 1019.70 1019.74 1019.82 1019.90 1020.02 1020.10 1020.14 1020.18 1020.22 1020.22 1020.26 1020.26 1020.26 1020.30 1020.30 1020.30 1020.26 1020.26 1020.22 1020.22 1020.22 1020.26 1020.30 1020.34 1020.42 1020.42 1020.50 1020.54 1020.58 1020.66 1020.70 1020.78 1020.82 1020.94 1021.02 1021.10 1021.14 1021.18 1021.22 1021.26 1021.34
1017.70 1017.82 1017.90 1018.02 1018.14 1018.26 1018.30 1018.42 1018.46 1018.54 1018.62 1018.70 1018.82 1018.82 1018.86 1018.94 1019.02 1019.10 1019.18 1019.26 1019.34 1019.42 1019.46 1019.54 1019.58 1019.70 1019.74 1019.78 1019.78 1019.82 1019.86 1019.98 1020.06 1020.14 1020.18 1020.26 1020.26 1020.26 1020.26 1020.30 1020.30 1020.30 1020.30 1020.26 1020.26 1020.26 1020.26 1020.26 1020.26 1020.30 1020.34 1020.42 1020.46 1020.50 1020.54 1020.58 1020.62 1020.70 1020.74 1020.82 1020.90 1020.98 1021.10 1021.18 1021.26 1021.26 1021.34 1021.38 1021.42
1017.70 1017.86 1017.98 1018.06 1018.14 1018.26 1018.34 1018.42 1018.50 1018.54 1018.62 1018.74 1018.82 1018.86 1018.94 1019.02 1019.14 1019.22 1019.30 1019.38 1019.46 1019.50 1019.54 1019.66 1019.70 1019.74 1019.78 1019.86 1019.86 1019.86 1019.94 1019.98 1020.10 1020.14 1020.18 1020.26 1020.26 1020.26 1020.26 1020.30 1020.26 1020.26 1020.26 1020.30 1020.26 1020.26 1020.26 1020.26 1020.30 1020.34 1020.38 1020.42 1020.46 1020.54 1020.58 1020.66 1020.70 1020.74 1020.82 1020.86 1020.98 1021.06 1021.18 1021.26 1021.26 1021.34 1021.42 1021.50 1021.58
1017.74 1017.86 1017.98 1018.06 1018.14 1018.26 1018.30 1018.42 1018.50 1018.58 1018.70 1018.78 1018.82 1018.90 1019.02 1019.14 1019.22 1019.30 1019.38 1019.46 1019.54 1019.54 1019.62 1019.70 1019.78 1019.86 1019.86 1019.86 1019.90 1019.94 1019.98 1020.02 1020.10 1020.14 1020.18 1020.26 1020.26 1020.26 1020.26 1020.30 1020.26 1020.26 1020.30 1020.30 1020.26 1020.26 1020.22 1020.18 1020.26 1020.30 1020.38 1020.42 1020.46 1020.54 1020.62 1020.70 1020.70 1020.78 1020.86 1020.94 1021.02 1021.14 1021.22 1021.30 1021.38 1021.46 1021.54 1021.62 1021.70
1017.74 1017.90 1018.02 1018.10 1018.14 1018.26 1018.34 1018.42 1018.50 1018.58 1018.70 1018.82 1018.90 1018.98 1019.10 1019.22 1019.26 1019.34 1019.42 1019.50 1019.58 1019.66 1019.70 1019.78 1019.82 1019.86 1019.90 1019.98 1019.98 1020.02 1020.06 1020.10 1020.10 1020.14 1020.18 1020.22 1020.26 1020.26 1020.26 1020.26 1020.26 1020.26 1020.26 1020.26 1020.26 1020.22 1020.14 1020.14 1020.18 1020.26 1020.34 1020.42 1020.46 1020.54 1020.62 1020.70 1020.78 1020.86 1020.94 1020.98 1021.06 1021.18 1021.26 1021.34 1021.46 1021.54 1021.66 1021.70 1021.78
1017.82 1017.90 1017.98 1018.10 1018.18 1018.26 1018.30 1018.38 1018.46 1018.62 1018.74 1018.82 1018.94 1019.06 1019.14 1019.26 1019.34 1019.42 1019.46 1019.54 1019.62 1019.70 1019.74 1019.86 1019.86 1019.94 1019.98 1019.98 1019.98 1020.06 1020.10 1020.14 1020.14 1020.14 1020.18 1020.22 1020.22 1020.22 1020.22 1020.26 1020.22 1020.22 1020.26 1020.26 1020.26 1020.18 1020.14 1020.14 1020.14 1020.22 1020.30 1020.42 1020.54 1020.58 1020.66 1020.74 1020.82 1020.90 1020.98 1021.06 1021.14 1021.26 1021.38 1021.46 1021.54 1021.66 1021.74 1021.86 1021.86
1017.82 1017.90 1017.98 1018.10 1018.18 1018.26 1018.30 1018.42 1018.50 1018.66 1018.78 1018.86 1018.98 1019.10 1019.18 1019.26 1019.38 1019.42 1019.50 1019.58 1019.66 1019.70 1019.78 1019.86 1019.86 1019.90 1019.98 1019.98 1019.98 1020.06 1020.10 1020.10 1020.10 1020.14 1020.14 1020.14 1020.18 1020.18 1020.18 1020.22 1020.22 1020.22 1020.22 1020.18 1020.18 1020.14 1020.14 1020.14 1020.18 1020.26 1020.38 1020.46 1020.54 1020.62 1020.70 1020.78 1020.86 1020.94 1021.02 1021.14 1021.22 1021.34 1021.42 1021.54 1021.66 1021.74 1021.82 1021.90 1021.98
1017.78 1017.86 1017.98 1018.10 1018.14 1018.22 1018.30 1018.42 1018.54 1018.66 1018.78 1018.90 1018.98 1019.10 1019.18 1019.26 1019.38 1019.46 1019.54 1019.62 1019.66 1019.70 1019.74 1019.82 1019.82 1019.86 1019.90 1019.94 1019.98 1020.02 1020.06 1020.06 1020.06 1020.10 1020.14 1020.14 1020.14 1020.14 1020.14 1020.18 1020.22 1020.22 1020.18 1020.14 1020.14 1020.10 1020.14 1020.22 1020.26 1020.34 1020.42 1020.46 1020.54 1020.62 1020.70 1020.82 1020.94 1021.02 1021.14 1021.18 1021.26 1021.38 1021.50 1021.62 1021.74 1021.86 1021.94 1021.98 1022.06
1017.74 1017.86 1017.98 1018.06 1018.14 1018.18 1018.26 1018.38 1018.50 1018.62 1018.74 1018.86 1018.98 1019.06 1019.14 1019.26 1019.34 1019.46 1019.54 1019.58 1019.62 1019.70 1019.70 1019.78 1019.82 1019.86 1019.86 1019.90 1019.94 1019.98 1020.02 1020.02 1020.02 1020.06 1020.06 1020.10 1020.10 1020.14 1020.14 1020.18 1020.22 1020.18 1020.14 1020.10 1020.10 1020.14 1020.14 1020.26 1020.30 1020.38 1020.42 1020.54 1020.58 1020.70 1020.82 1020.90 1020.98 1021.06 1021.14 1021.26 1021.34 1021.42 1021.54 1021.70 1021.78 1021.86 1021.98 1022.06 1022.14
1017.70 1017.82 1017.90 1017.98 1018.10 1018.18 1018.26 1018.34 1018.42 1018.58 1018.70 1018.82 1018.94 1019.02 1019.14 1019.26 1019.34 1019.42 1019.46 1019.54 1019.62 1019.70 1019.70 1019.78 1019.82 1019.82 1019.86 1019.90 1019.90 1019.94 1019.98 1019.98 1019.98 1020.02 1020.02 1020.06 1020.10 1020.14 1020.14 1020.22 1020.22 1020.18 1020.14 1020.10 1020.10 1020.14 1020.22 1020.30 1020.38 1020.46 1020.54 1020.62 1020.70 1020.82 1020.90 1020.98 1021.06 1021.14 1021.26 1021.30 1021.42 1021.50 1021.58 1021.70 1021.86 1021.90 1021.98 1022.06 1022.14
1017.62 1017.74 1017.86 1017.94 1018.06 1018.14 1018.18 1018.26 1018.42 1018.54 1018.70 1018.82 1018.90 1019.02 1019.14 1019.22 1019.30 1019.42 1019.46 1019.54 1019.62 1019.70 1019.70 1019.78 1019.78 1019.86 1019.86 1019.90 1019.94 1019.94 1019.98 1019.98 1019.98 1019.98 1019.98 1020.06 1020.06 1020.14 1020.18 1020.22 1020.22 1020.18 1020.14 1020.14 1020.14 1020.26 1020.30 1020.42 1020.50 1020.54 1020.66 1020.70 1020.86 1020.98 1021.10 1021.14 1021.22 1021.26 1021.38 1021.42 1021.54 1021.58 1021.66 1021.78 1021.86 1021.94 1021.98 1022.06 1022.10
1017.54 1017.66 1017.78 1017.86 1017.98 1018.06 1018.14 1018.26 1018.38 1018.54 1018.66 1018.78 1018.86 1018.98 1019.10 1019.18 1019.26 1019.34 1019.46 1019.54 1019.62 1019.70 1019.70 1019.74 1019.74 1019.82 1019.86 1019.90 1019.94 1019.98 1019.98 1019.98 1019.98 1019.98 1020.02 1020.10 1020.14 1020.14 1020.22 1020.26 1020.26 1020.22 1020.18 1020.22 1020.26 1020.38 1020.46 1020.54 1020.62 1020.70 1020.78 1020.86 1020.98 1021.14 1021.22 1021.30 1021.38 1021.46 1021.54 1021.62 1021.66 1021.70 1021.78 1021.82 1021.86 1021.94 1021.98 1022.06 1022.10
1017.42 1017.54 1017.70 1017.82 1017.90 1017.98 1018.06 1018.18 1018.30 1018.46 1018.62 1018.74 1018.82 1018.98 1019.02 1019.14 1019.22 1019.30 1019.42 1019.54 1019.62 1019.70 1019.70 1019.74 1019.78 1019.82 1019.86 1019.94 1019.98 1019.98 1020.02 1020.02 1020.02 1020.02 1020.06 1020.14 1020.14 1020.18 1020.26 1020.26 1020.30 1020.26 1020.26 1020.34 1020.42 1020.54 1020.58 1020.66 1020.70 1020.78 1020.86 1020.98 1021.14 1021.26 1021.34 1021.42 1021.54 1021.62 1021.70 1021.74 1021.82 1021.86 1021.90 1021.90 1021.94 1021.98 1021.98 1022.02 1022.06
1017.34 1017.50 1017.62 1017.74 1017.86 1017.94 1017.98 1018.14 1018.26 1018.42 1018.54 1018.70 1018.82 1018.94 1018.98 1019.06 1019.14 1019.26 1019.38 1019.46 1019.58 1019.70 1019.78 1019.82 1019.86 1019.90 1019.98 1020.02 1020.06 1020.10 1020.14 1020.14 1020.14 1020.14 1020.10 1020.14 1020.18 1020.26 1020.30 1020.38 1020.38 1020.38 1020.42 1020.46 1020.54 1020.62 1020.70 1020.70 1020.74 1020.82 1020.98 1021.14 1021.26 1021.38 1021.46 1021.54 1021.66 1021.70 1021.78 1021.86 1021.90 1021.98 1021.98 1021.98 1021.98 1022.02 1022.06 1022.10 1022.14
1017.26 1017.42 1017.54 1017.70 1017.74 1017.86 1017.94 1018.06 1018.22 1018.34 1018.50 1018.62 1018.78 1018.86 1018.98 1019.02 1019.14 1019.26 1019.38 1019.42 1019.54 1019.70 1019.82 1019.86 1019.94 1019.98 1020.02 1020.10 1020.14 1020.18 1020.22 1020.22 1020.26 1020.26 1020.22 1020.14 1020.22 1020.30 1020.42 1020.46 1020.50 1020.54 1020.54 1020.58 1020.66 1020.70 1020.74 1020.74 1020.78 1020.86 1021.02 1021.18 1021.34 1021.46 1021.54 1021.62 1021.70 1021.78 1021.86 1021.94 1021.98 1022.02 1022.06 1022.06 1022.06 1022.14 1022.18 1022.22 1022.26
1017.18 1017.30 1017.42 1017.58 1017.66 1017.74 1017.86 1017.98 1018.14 1018.26 1018.42 1018.54 1018.70 1018.82 1018.90 1019.02 1019.14 1019.26 1019.38 1019.42 1019.54 1019.70 1019.78 1019.86 1019.98 1020.02 1020.10 1020.14 1020.22 1020.26 1020.26 1020.26 1020.30 1020.34 1020.30 1020.30 1020.30 1020.42 1020.46 1020.54 1020.62 1020.70 1020.70 1020.70 1020.70 1020.74 1020.78 1020.82 1020.82 1020.94 1021.06 1021.22 1021.38 1021.50 1021.58 1021.66 1021.74 1021.86 1021.94 1022.02 1022.10 1022.14 1022.14 1022.18 1022.18 1022.26 1022.30 1022.34 1022.26
1017.14 1017.26 1017.42 1017.50 1017.62 1017.70 1017.86 1017.98 1018.10 1018.22 1018.38 1018.54 1018.66 1018.78 1018.90 1018.98 1019.14 1019.26 1019.34 1019.42 1019.54 1019.62 1019.74 1019.86 1019.98 1020.06 1020.14 1020.18 1020.22 1020.26 1020.30 1020.34 1020.34 1020.38 1020.42 1020.42 1020.42 1020.42 1020.54 1020.66 1020.70 1020.78 1020.78 1020.74 1020.78 1020.82 1020.82 1020.82 1020.90 1020.98 1021.10 1021.26 1021.38 1021.50 1021.58 1021.70 1021.82 1021.94 1022.02 1022.14 1022.18 1022.22 1022.26 1022.26 1022.30 1022.38 1022.42 1022.42 1022.30
1017.14 1017.26 1017.38 1017.46 1017.54 1017.66 1017.78 1017.94 1018.06 1018.18 1018.34 1018.46 1018.58 1018.74 1018.86 1018.98 1019.10 1019.22 1019.34 1019.42 1019.50 1019.58 1019.70 1019.86 1019.98 1020.10 1020.14 1020.18 1020.22 1020.30 1020.38 1020.38 1020.42 1020.42 1020.42 1020.42 1020.42 1020.46 1020.54 1020.70 1020.78 1020.82 1020.82 1020.78 1020.78 1020.82 1020.86 1020.86 1020.94 1020.98 1021.14 1021.30 1021.42 1021.50 1021.58 1021.70 1021.82 1021.98 1022.06 1022.14 1022.22 1022.26 1022.30 1022.38 1022.42 1022.46 1022.50 1022.50 1022.42
1017.14 1017.22 1017.30 1017.42 1017.50 1017.62 1017.74 1017.86 1018.02 1018.18 1018.30 1018.46 1018.58 1018.70 1018.82 1018.94 1019.06 1019.18 1019.34 1019.42 1019.50 1019.54 1019.70 1019.82 1019.98 1020.06 1020.14 1020.18 1020.22 1020.26 1020.38 1020.42 1020.42 1020.46 1020.46 1020.46 1020.46 1020.50 1020.54 1020.70 1020.78 1020.82 1020.82 1020.82 1020.82 1020.82 1020.86 1020.90 1020.94 1020.98 1021.14 1021.34 1021.42 1021.46 1021.58 1021.70 1021.86 1021.98 1022.10 1022.14 1022.22 1022.26 1022.34 1022.42 1022.46 1022.50 1022.50 1022.54 1022.54
Wind_Speed
3 3 3 3 3 2 2 2 2 2 2 1 1 1 1 1 1 1 1 1 1 1 2 2 2 2 2 2 2 2 2 3 3 3 3 3 3 4 4 4 5 5 5 6 6 5 5 5 5 4 3 3 2 2 2 1 0 1 2 2 3 3 4 5 5 5 6 6 5
3 4 4 3 3 2 2 2 2 2 1 1 1 1 1 1 1 1 1 1 1 2 2 2 2 2 1 2 2 2 2 2 2 2 3 3 3 3 4 4 4 5 5 5 5 5 4 4 4 3 3 2 1 2 2 3 1 1 2 2 2 2 3 4 5 6 6 6 5
3 3 3 3 2 2 2 1 2 2 2 1 1 1 1 1 1 1 1 1 1 2 2 2 2 1 1 2 2 2 1 1 2 2 2 2 3 3 3 3 4 4 4 4 5 4 4 4 3 3 2 2 2 2 2 3 2 2 2 2 2 1 1 2 2 3 4 4 4
3 3 3 3 2 2 2 1 2 2 2 2 2 2 1 1 1 1 1 2 2 3 3 2 2 2 2 2 2 2 1 1 2 2 2 2 3 3 3 3 3 3 4 4 4 4 4 4 3 2 3 3 3 2 2 2 2 3 3 2 2 3 3 2 2 2 3 3 4
3 3 3 2 2 2 2 2 3 3 2 2 2 1 1 1 1 2 2 2 2 3 3 2 2 3 3 3 2 2 1 1 2 1 2 3 3 3 3 2 2 2 3 4 4 4 4 4 3 2 3 3 3 3 2 3 3 3 3 2 3 3 3 3 2 3 3 4 3
3 3 3 3 3 3 3 3 3 2 2 2 1 1 1 1 1 1 2 2 2 3 3 3 3 3 3 2 2 1 1 1 1 0 1 3 3 3 2 2 2 2 3 3 4 4 4 3 2 2 2 3 3 3 3 3 3 4 4 3 3 3 3 3 3 3 4 5 5
3 3 3 3 3 3 2 2 2 2 2 1 1 0 0 1 1 1 1 2 2 3 3 3 2 2 2 2 2 1 1 1 1 1 2 3 3 2 1 1 2 2 2 3 3 3 4 3 2 2 3 3 3 3 4 4 3 4 5 4 3 3 3 4 3 4 5 7 7
3 3 3 3 3 3 2 2 2 2 1 1 1 1 1 1 1 1 1 2 2 2 2 2 1 1 1 2 2 2 1 0 1 1 2 2 2 1 1 1 2 2 2 2 2 3 3 3 2 2 2 2 2 3 4 4 4 5 5 5 4 3 3 3 3 4 6 7 7
3 3 3 3 2 2 2 2 2 2 1 1 1 1 1 2 1 1 1 1 1 1 1 1 0 1 2 2 2 1 1 0 0 1 1 1 2 2 2 2 2 2 1 1 2 2 3 3 2 2 2 2 3 3 4 5 5 5 5 5 4 4 4 4 4 5 5 7 7
3 3 3 3 2 2 2 2 2 1 1 1 1 2 2 2 1 1 1 1 1 1 1 1 1 1 2 2 2 1 0 0 0 0 1 2 2 2 3 3 3 2 1 0 2 2 3 2 2 2 2 2 3 4 5 5 5 5 5 4 5 6 6 5 5 5 6 6 7
4 3 3 2 2 2 2 1 1 1 2 2 2 2 2 2 1 1 1 0 1 1 1 1 1 1 1 1 1 1 1 0 0 0 0 1 1 2 2 3 3 3 3 2 0 2 2 2 2 2 2 3 4 5 5 5 5 5 4 4 6 7 7 6 5 5 5 6 7
4 3 3 2 2 2 1 1 1 1 2 2 2 2 2 2 1 1 1 1 1 1 1 0 0 1 1 0 1 1 1 1 0 0 1 1 1 2 2 2 2 3 4 3 1 2 2 2 3 3 3 3 3 4 4 5 5 5 5 5 6 6 6 6 5 5 5 6 6
4 3 3 2 2 1 1 0 1 1 2 3 2 2 2 2 1 1 1 2 2 1 1 1 1 0 0 1 1 1 1 1 1 1 1 1 1 2 2 2 2 3 4 3 2 2 3 3 3 4 4 3 3 3 4 4 4 5 5 5 6 6 6 6 5 5 5 6 6
4 3 3 2 2 1 1 1 1 1 2 3 2 2 2 2 2 2 2 2 2 2 2 2 1 1 0 0 0 1 1 1 0 0 1 2 2 2 2 2 2 3 4 4 3 3 3 3 4 4 4 4 4 4 4 4 4 5 5 5 6 6 5 5 5 6 6 6 6
3 3 3 3 2 2 1 1 1 1 2 3 2 1 1 1 2 2 2 2 2 3 3 2 2 2 1 1 1 1 1 1 0 1 2 3 3 3 3 3 4 4 5 4 4 3 3 4 4 4 4 4 4 4 4 4 4 5 5 5 6 5 5 5 5 5 6 6 5
3 3 3 3 2 2 2 1 1 1 2 2 2 1 1 0 1 2 2 2 3 3 3 3 3 3 2 2 1 1 1 1 1 2 3 4 4 4 4 4 4 5 5 5 4 4 4 5 5 5 5 4 4 4 5 5 5 5 5 5 5 5 5 5 5 5 5 5 5
3 3 3 3 3 2 2 2 1 1 1 2 2 2 1 1 1 2 2 2 2 2 3 3 3 2 2 2 1 0 1 2 3 4 5 5 5 5 5 4 4 5 5 5 5 5 5 5 5 4 5 5 4 5 5 5 5 5 6 6 6 5 5 5 5 5 5 5 5
3 3 3 3 3 2 2 2 2 1 1 2 2 1 1 1 1 2 2 2 2 2 1 1 0 0 1 1 2 2 3 4 5 5 5 5 5 5 4 4 4 4 4 4 4 4 4 4 4 4 4 5 5 5 5 5 6 6 6 6 6 6 6 5 5 5 5 5 5
4 4 3 3 3 2 2 2 2 1 1 1 2 1 1 1 1 1 1 1 1 2 2 2 2 2 2 3 3 3 3 4 5 5 4 4 4 4 3 3 3 3 3 3 3 2 2 2 3 3 4 5 5 5 5 6 6 6 6 6 6 6 6 6 5 5 5 5 5
4 4 4 3 3 3 3 2 2 2 2 2 2 2 1 2 1 1 1 1 1 2 2 2 2 2 2 3 3 3 3 3 4 4 4 3 3 3 3 3 3 3 2 2 2 1 1 2 3 3 4 5 6 6 5 6 6 6 6 6 6 6 6 6 5 5 5 5 4
4 4 4 3 3 3 3 3 2 2 2 2 2 2 2 2 2 1 1 0 1 1 1 1 1 2 3 4 3 3 3 3 4 4 4 3 3 3 3 3 3 2 2 1 1 1 1 2 3 4 5 6 6 6 6 5 6 6 6 5 5 6 6 5 5 5 5 4 4
3 3 3 3 3 3 3 3 2 2 2 2 2 3 3 3 2 2 1 1 1 1 1 1 2 3 4 4 3 3 3 4 4 4 4 3 3 3 3 3 3 2 2 1 1 0 1 2 3 4 5 5 5 6 6 6 6 6 6 6 6 6 6 5 5 5 5 5 4
2 3 3 3 3 3 3 3 2 2 2 2 2 2 2 2 1 1 1 2 2 2 2 2 3 4 4 3 3 3 3 4 4 3 3 3 3 3 2 2 2 1 1 0 1 0 1 2 3 4 5 5 5 5 6 6 6 6 6 6 6 6 6 5 5 5 4 4 4
3 3 3 3 3 3 3 3 2 2 2 2 2 2 1 1 1 2 3 3 3 3 3 3 3 3 3 2 2 2 3 3 3 3 2 2 2 2 1 1 0 1 1 0 0 1 1 2 3 4 4 5 5 5 5 6 6 6 6 6 6 6 6 5 5 4 5 5 5
3 3 3 3 3 3 3 3 2 2 2 2 1 1 2 3 3 3 3 3 3 3 3 3 3 2 2 2 2 2 2 2 3 3 2 2 2 1 1 1 1 1 1 0 0 2 3 4 4 4 4 4 5 5 5 5 6 6 6 6 6 6 5 5 5 5 5 5 5
3 4 3 3 3 3 3 3 3 2 2 1 1 2 3 3 3 3 3 3 3 3 3 3 2 2 2 2 1 2 2 2 2 2 2 2 2 2 2 2 2 1 1 1 1 3 4 7 7 6 5 4 5 5 5 5 5 6 6 6 6 6 5 5 5 5 6 6 5
3 4 4 3 3 3 3 3 3 2 2 1 2 3 3 3 3 3 3 3 3 3 3 2 2 2 2 2 2 1 1 1 1 2 2 2 2 2 2 2 2 1 2 3 3 4 5 7 8 8 6 4 4 4 5 4 5 5 5 5 5 5 5 5 5 6 6 5 5
3 4 4 4 4 4 4 4 3 3 3 2 3 3 3 2 2 3 3 3 3 2 2 2 2 2 1 1 2 2 1 1 1 2 2 2 2 3 3 2 1 2 3 5 6 6 6 7 8 8 7 5 4 4 4 4 5 5 4 4 4 4 5 5 5 5 5 5 4
4 4 4 4 4 4 4 4 4 4 4 3 3 3 3 3 3 3 3 3 3 3 2 2 2 2 2 2 2 2 2 2 2 2 2 3 3 3 2 2 1 3 5 7 8 7 6 7 8 9 9 7 4 4 4 4 4 4 4 4 4 4 4 4 4 4 5 5 4
4 4 4 5 4 4 4 5 4 4 4 3 3 3 4 4 4 4 3 3 3 3 3 3 2 3 3 3 3 3 3 3 3 3 3 3 3 3 2 2 2 3 5 9 9 8 7 8 8 9 9 8 5 4 3 3 3 4 4 4 4 5 5 5 5 5 5 5 5
5 5 5 5 5 5 5 5 5 5 4 4 4 4 4 4 4 4 3 3 3 2 3 3 3 2 3 3 3 2 2 2 2 3 3 3 3 3 3 2 2 3 6 8 8 8 8 9 9 9 9 8 5 4 3 4 4 4 4 4 4 4 5 5 5 5 5 5 5
5 5 5 5 5 5 5 6 6 5 5 5 4 4 4 4 4 3 3 2 2 2 2 2 2 2 2 2 2 2 2 2 2 2 2 3 3 3 3 2 2 4 5 7 8 8 9 9 9 9 9 8 6 5 4 4 4 4 4 4 4 4 4 4 5 5 6 6 5
6 6 6 6 6 6 6 6 6 6 5 5 4 4 4 4 3 3 2 2 2 2 2 2 2 2 2 2 2 2 2 2 2 2 3 3 4 3 3 2 2 3 5 7 8 9 9 9 9 9 9 9 7 5 5 4 4 4 4 4 4 4 3 3 3 4 5 5 5
7 7 6 6 6 6 6 6 6 6 6 5 4 4 4 4 3 3 3 2 2 2 2 2 2 2 2 2 2 1 1 1 2 2 3 4 4 4 3 2 2 3 6 8 9 9 9 9 9 10 10 10 7 6 5 5 4 4 5 5 5 4 4 4 3 3 3 3 4
8 7 7 6 6 6 6 7 7 6 6 5 4 4 4 4 4 3 3 3 2 2 2 2 2 2 3 3 3 3 3 2 2 2 3 4 4 4 3 3 2 5 7 9 9 9 9 9 10 10 10 8 6 5 5 5 5 5 5 5 4 4 4 4 4 3 3 3 3
8 8 8 7 7 7 7 7 7 7 6 6 5 5 4 4 4 3 3 3 3 2 2 2 3 3 3 3 3 3 3 3 2 2 3 4 4 4 4 3 3 5 8 9 9 9 9 10 10 10 9 7 5 4 5 5 4 5 5 5 4 3 3 3 4 4 4 4 4
8 8 8 7 7 7 7 7 7 7 7 6 5 5 4 4 4 3 3 3 3 3 3 3 3 3 3 3 3 3 3 3 3 2 3 4 5 5 5 4 3 5 7 9 9 9 10 10 10 10 8 5 4 4 4 4 4 4 4 4 4 3 3 3 3 4 4 4 4
7 7 7 7 7 7 7 7 7 7 7 6 5 5 4 4 4 4 3 4 3 3 3 3 3 3 3 3 3 3 3 3 3 3 3 4 5 5 5 4 3 4 6 8 9 9 10 10 10 9 7 4 4 4 4 4 4 4 4 4 3 2 2 2 2 3 3 3 4
7 7 7 7 7 7 7 7 7 7 7 6 5 5 5 4 4 4 4 3 3 3 3 4 4 4 4 4 3 3 2 2 2 2 3 3 5 6 6 4 3 3 5 7 9 9 9 9 10 9 7 4 4 3 3 3 4 4 4 3 3 2 2 2 2 2 2 2 3
7 7 6 6 6 7 7 7 7 7 6 5 5 5 5 5 4 4 4 3 3 3 4 4 5 5 4 4 4 3 3 2 2 2 2 3 5 7 7 5 4 4 5 7 8 9 9 9 9 9 7 4 3 3 3 3 4 4 4 3 3 2 2 2 2 2 2 2 2
6 6 6 6 6 7 7 7 7 6 5 5 5 5 5 5 4 4 4 3 3 4 4 4 5 5 5 5 4 4 3 3 2 1 2 2 4 6 7 5 4 4 4 6 8 8 8 8 8 8 7 4 3 3 3 3 4 4 4 3 3 3 2 2 2 2 2 1 1
Wind_Direction
94 90 84 79 79 79 81 83 84 83 79 71 56 47 44 48 37 21 11 32 69 76 77 77 76 73 65 57 48 34 17 1 349 342 335 331 327 328 328 326 323 318 314 310 308 306 304 304 299 293 286 282 291 305 319 335 84 122 128 134 147 154 158 163 169 173 176 176 172
102 98 94 90 92 95 100 105 112 118 124 125 105 78 59 50 34 6 347 353 77 85 84 78 75 70 63 58 56 47 30 1 351 343 336 332 331 332 331 325 319 316 315 313 312 310 309 311 310 307 306 312 340 351 347 341 355 97 130 128 138 153 165 173 176 177 177 174 162
112 110 110 114 120 126 131 136 138 135 126 105 84 73 61 49 29 353 332 341 69 81 80 70 60 51 47 51 57 56 45 24 8 352 338 330 327 325 320 312 313 318 324 326 327 328 328 330 329 329 332 344 3 9 1 347 1 36 75 70 65 74 99 131 151 159 160 153 140
116 115 117 123 125 124 118 105 92 84 76 67 61 56 51 36 17 2 359 3 43 63 69 59 43 32 29 30 34 33 33 48 36 9 340 324 315 308 301 298 312 332 342 342 342 342 342 343 346 350 354 358 6 9 9 7 35 53 63 56 57 62 65 61 61 83 102 105 106
111 106 105 105 101 93 82 72 68 63 60 57 55 51 43 36 26 20 15 12 33 50 56 47 37 28 23 13 6 359 6 43 53 22 326 306 298 293 292 296 332 360 2 354 352 353 354 354 360 3 4 2 4 5 11 25 54 65 67 57 60 69 77 79 75 80 87 90 85
109 102 96 92 89 82 76 75 77 78 74 65 59 53 44 48 46 37 27 15 35 46 49 44 38 30 17 351 338 333 351 52 87 188 269 276 278 282 291 314 14 26 20 8 5 3 2 4 10 12 11 10 9 8 12 25 55 65 64 55 48 52 62 71 76 84 89 91 86
112 107 103 99 96 93 91 89 92 94 93 88 97 115 119 75 66 53 40 31 41 44 47 43 40 27 359 322 303 285 254 182 178 209 238 256 264 278 305 7 41 44 37 24 19 16 15 16 19 18 17 19 17 13 12 22 51 66 68 62 53 50 56 62 70 82 89 92 90
109 109 109 108 108 109 110 113 117 119 122 135 156 156 130 86 68 54 45 48 48 48 46 41 29 352 309 291 281 268 246 194 199 227 245 258 275 299 342 29 50 56 55 51 46 42 37 34 31 26 24 28 30 22 19 25 52 68 73 69 62 55 53 57 68 81 90 94 93
111 112 113 115 119 122 125 130 134 139 145 153 143 115 90 71 57 47 47 67 71 74 72 65 294 267 264 264 268 269 267 99 341 306 303 312 334 349 2 14 26 38 60 88 87 77 68 59 49 40 36 42 47 41 34 32 53 68 77 77 68 58 51 51 60 73 85 92 94
126 125 126 127 130 129 128 131 140 143 142 139 112 95 85 78 68 50 49 78 123 142 150 166 216 239 248 255 269 286 309 91 48 339 340 350 359 11 18 12 4 357 355 63 114 108 98 84 71 61 55 56 61 59 53 47 52 62 73 82 78 69 61 52 56 66 76 86 91
132 129 127 125 125 122 121 132 146 146 139 127 113 106 101 103 104 94 82 103 169 161 150 165 222 244 256 268 302 316 313 269 184 139 38 13 16 30 38 28 1 341 328 323 105 113 107 96 85 75 67 64 68 69 69 65 63 64 69 79 84 82 76 67 65 69 76 84 89
124 118 111 105 105 107 112 143 164 150 138 126 119 115 114 110 103 104 123 188 178 152 134 164 241 268 279 310 337 327 317 315 340 76 84 66 46 51 52 46 3 334 322 329 14 68 85 90 86 78 71 67 71 77 80 82 81 79 78 78 83 86 88 86 83 83 86 88 91
116 113 109 108 107 109 120 176 193 146 126 114 106 107 110 114 117 140 178 195 171 152 149 178 214 253 302 358 350 334 326 330 352 29 69 80 67 65 63 57 7 338 333 346 22 51 70 81 82 80 77 75 78 85 89 92 92 92 89 87 85 87 91 94 94 94 94 94 95
115 118 122 126 128 134 147 190 205 126 109 104 97 97 109 127 150 179 194 194 173 163 163 177 188 195 197 34 306 299 295 294 302 53 73 74 65 61 56 48 17 359 355 3 23 48 66 74 73 73 74 76 78 82 87 93 94 95 95 94 92 92 92 94 96 96 97 98 98
122 128 135 138 145 154 169 186 173 116 104 107 104 99 101 136 176 188 193 191 182 175 174 179 183 187 189 194 232 262 279 284 276 81 75 65 56 50 44 36 23 13 9 9 17 35 56 69 69 67 66 67 69 72 77 82 87 91 93 94 95 95 94 94 94 95 98 102 102
136 143 146 150 158 166 174 175 144 114 109 115 114 109 98 263 224 211 202 193 191 190 187 187 184 185 188 192 209 249 295 314 18 55 61 60 52 46 39 33 24 17 13 14 18 28 42 59 66 69 70 69 70 73 76 80 83 86 88 91 92 93 94 94 94 96 99 102 103
147 152 153 157 164 170 169 156 133 124 127 132 129 132 157 247 255 250 235 223 217 212 206 197 185 179 178 181 170 29 12 16 42 50 55 55 52 48 41 34 26 20 18 22 28 36 44 55 65 71 74 74 74 76 79 81 83 83 84 85 86 87 88 89 92 95 97 98 99
156 155 155 157 163 162 155 137 130 133 144 147 144 150 181 234 252 260 262 261 264 267 264 245 168 84 77 66 54 41 36 42 53 56 55 55 54 51 46 38 31 27 26 30 38 44 52 64 74 79 82 81 79 79 80 82 82 81 81 81 82 82 82 83 85 89 92 94 94
163 159 157 160 158 151 139 128 130 138 142 139 140 157 197 234 249 266 284 298 328 343 350 357 6 16 31 45 49 44 42 53 64 66 63 61 58 57 53 48 41 38 39 41 44 51 63 78 88 94 94 93 89 86 85 85 85 84 83 82 82 82 82 82 84 86 89 92 93
164 160 159 159 151 143 136 134 143 148 146 135 142 164 196 219 226 242 278 329 7 12 11 5 359 6 28 47 51 49 47 56 67 70 69 66 60 57 55 57 54 50 48 51 62 76 91 99 104 105 104 102 99 96 93 91 90 89 88 88 87 87 87 88 88 89 91 92 92
163 158 154 147 142 138 139 145 155 158 155 145 154 172 192 201 198 197 190 121 47 33 12 347 355 17 34 45 47 46 48 56 60 61 61 60 55 49 44 51 56 53 43 34 58 121 132 125 118 113 110 108 108 107 104 100 98 97 96 97 96 95 94 94 94 95 95 94 91
158 147 140 136 136 137 140 148 156 155 152 147 163 179 190 193 190 183 161 92 62 38 10 11 35 44 47 46 43 44 50 59 57 53 51 52 51 45 41 45 57 54 36 6 345 96 138 130 121 116 115 114 115 115 114 111 109 107 106 104 102 100 98 97 97 97 97 96 91
145 132 128 128 131 134 137 142 148 150 150 153 172 185 191 189 179 137 86 63 50 35 28 39 55 60 60 56 51 54 63 75 70 64 59 59 58 52 46 46 65 74 68 315 309 321 119 120 117 116 116 118 119 119 118 117 117 115 112 109 105 102 101 99 100 99 98 95 87
135 126 124 125 128 131 134 138 145 154 164 169 179 181 173 111 74 68 65 61 54 45 43 51 62 67 70 68 66 71 81 94 95 92 87 86 85 80 70 61 118 163 187 236 240 156 137 125 120 119 121 124 124 124 123 122 122 120 117 114 111 109 108 108 107 103 98 91 83
133 128 127 128 131 132 134 138 148 163 181 188 174 129 89 68 65 68 72 73 69 65 63 64 65 69 72 68 71 83 94 106 115 120 125 129 132 137 158 209 205 190 158 83 191 169 157 146 139 134 133 133 132 130 128 127 127 125 122 120 119 119 118 116 112 104 95 88 86
134 133 134 136 136 137 139 146 155 169 182 190 134 97 86 81 82 84 86 87 82 80 79 78 76 78 81 72 74 84 97 109 126 140 150 162 167 176 194 217 209 178 140 138 203 191 173 157 151 147 145 142 139 135 133 131 130 128 126 125 125 125 124 121 114 106 100 97 99
138 140 144 145 144 146 151 155 159 164 167 156 111 96 91 91 95 97 96 95 92 91 92 96 96 97 97 93 95 97 102 119 140 157 168 179 185 192 202 219 207 175 158 175 205 205 189 166 157 152 148 141 138 137 135 132 131 129 127 127 126 126 124 120 116 113 112 112 112
148 150 152 152 153 156 156 153 150 147 141 126 113 110 112 119 120 120 119 119 119 119 121 127 130 128 127 128 132 137 147 163 171 177 184 195 203 206 207 215 198 176 177 190 205 207 194 169 156 148 140 129 125 126 129 130 131 129 127 126 125 123 120 117 117 117 117 116 106
157 155 155 156 158 156 151 143 140 137 134 129 131 136 143 148 146 144 144 146 150 154 158 157 158 159 163 165 164 169 179 191 192 190 192 202 213 209 199 187 179 184 191 198 204 201 186 160 147 138 132 125 121 123 128 130 129 127 124 123 124 122 119 116 115 115 112 106 94
161 158 156 157 157 153 147 141 140 139 140 141 147 152 155 155 154 155 157 161 168 172 171 167 170 172 176 176 176 180 189 200 200 198 198 204 205 190 168 157 168 195 204 204 199 189 171 151 140 134 130 127 121 118 118 120 119 119 120 122 121 120 119 119 119 117 113 106 99
163 160 158 159 157 154 150 147 147 147 148 151 154 157 156 155 155 158 161 168 176 174 167 161 170 176 177 171 175 180 190 202 207 205 200 195 180 159 143 148 174 203 207 200 186 172 158 147 140 135 132 128 116 106 104 110 112 114 117 118 118 120 123 127 129 128 125 120 116
166 164 162 162 162 159 157 155 153 153 153 153 154 155 154 152 153 153 154 157 160 158 156 158 170 174 170 163 170 181 192 202 206 198 180 160 144 136 137 152 179 200 198 183 165 155 148 142 136 130 123 115 99 89 91 99 102 103 103 101 102 108 117 129 136 137 137 134 133
168 167 166 168 167 165 162 158 156 154 153 152 153 153 152 149 145 141 137 140 146 152 158 166 171 169 163 158 165 174 187 195 188 168 148 136 130 129 135 150 176 184 174 156 145 139 134 130 124 118 111 102 92 85 85 89 89 87 83 78 73 73 80 94 114 129 138 142 143
170 170 171 173 172 168 163 158 155 153 151 151 153 154 152 147 141 136 134 138 143 149 154 157 150 140 129 118 113 110 116 133 135 132 128 125 124 124 127 136 153 156 148 137 132 129 127 124 121 116 111 104 97 91 88 88 86 82 79 74 68 64 63 65 73 86 106 124 134
171 172 174 177 175 169 163 157 154 153 152 153 157 158 155 148 143 139 138 139 134 126 118 113 103 95 86 78 70 60 53 50 74 106 121 124 121 119 118 120 125 133 133 128 128 128 129 129 126 121 116 108 101 95 93 93 92 91 89 86 80 73 67 63 60 57 57 62 81
172 172 175 177 175 170 164 157 156 155 155 159 164 165 160 150 143 138 136 133 125 118 111 105 97 91 84 77 69 61 52 40 40 67 106 122 118 115 111 110 113 124 128 128 131 134 135 135 131 126 120 110 102 99 100 101 103 102 101 97 91 83 75 68 62 55 49 44 47
172 173 174 177 175 170 164 159 159 159 161 165 169 167 158 147 140 136 134 132 128 126 123 115 108 103 99 94 86 76 67 57 47 55 81 110 113 111 108 104 104 119 127 133 137 139 139 138 134 128 121 109 106 107 110 112 112 110 107 103 98 91 82 73 66 60 54 47 41
172 173 174 176 174 170 166 162 162 163 164 167 168 162 153 143 140 140 139 138 138 139 136 126 119 116 114 111 103 92 81 74 69 71 82 101 110 112 110 106 105 118 131 140 142 142 141 139 134 131 125 116 117 120 121 121 119 116 113 110 108 102 92 81 75 70 65 60 52
172 173 174 175 173 169 165 164 164 164 165 166 162 156 149 144 144 146 147 146 146 146 143 135 131 128 126 122 114 105 94 85 81 86 97 108 117 119 118 115 118 129 141 146 146 145 144 141 138 135 133 126 128 128 128 126 122 121 120 120 119 115 107 95 90 86 83 78 72
169 171 172 173 169 166 165 164 164 164 163 161 157 152 149 148 148 149 150 149 149 147 143 137 137 136 135 133 127 121 115 103 93 95 108 123 127 129 129 128 135 144 151 153 151 149 148 146 144 142 140 133 134 132 129 126 124 125 127 129 130 130 126 116 110 109 108 102 84
166 169 171 171 169 166 164 164 163 161 158 156 154 153 151 150 149 149 151 154 152 147 141 137 139 141 142 142 139 136 135 133 130 131 138 142 139 138 139 140 146 152 157 159 157 155 153 152 150 148 146 140 135 130 126 123 127 132 138 144 143 142 140 136 128 127 128 131 110